Terug naar catalogus

STARLINK-33824

ActiefCommunicatieVLEO
NORAD 63766·PAYLOAD·🇺🇸 United States

Gelanceerd Apr 29, 2025 vanaf Cape Canaveral Space Force Station

Loading…

Volgende Passages (komende 24 uur)

TLE

VersSource: CelesTrak SupGP

Epoch: Sep 14, 2026, 22:55 UTC

1 63766C 25089R   26257.95534722  .00054813  00000+0  19846-2 0  2578
2 63766  43.0017  56.7388 0001794 280.2046 269.7519 15.27563442    14

Volg STARLINK-33824 in realtime met AllMySat

Download on the App Store